Index of /20260507/WXO-DD/model_gdps/15km/00/012
Name Last modified Size Description
Parent Directory -
20260507T00Z_MSC_GDPS_AbsoluteVorticity_IsbL-0200_LatLon0.15_PT012H.grib2 2026-05-07 04:00 1.5M
20260507T00Z_MSC_GDPS_AbsoluteVorticity_IsbL-0250_LatLon0.15_PT012H.grib2 2026-05-07 04:00 1.3M
20260507T00Z_MSC_GDPS_AbsoluteVorticity_IsbL-0500_LatLon0.15_PT012H.grib2 2026-05-07 04:00 1.2M
20260507T00Z_MSC_GDPS_AbsoluteVorticity_IsbL-0700_LatLon0.15_PT012H.grib2 2026-05-07 04:00 1.7M
20260507T00Z_MSC_GDPS_AbsoluteVorticity_IsbL-0850_LatLon0.15_PT012H.grib2 2026-05-07 04:00 1.6M
20260507T00Z_MSC_GDPS_AirTemp-Max_AGL-2m_LatLon0.15_PT012H.grib2 2026-05-07 04:00 732K
20260507T00Z_MSC_GDPS_AirTemp-Min_AGL-2m_LatLon0.15_PT012H.grib2 2026-05-07 04:00 782K
20260507T00Z_MSC_GDPS_AirTemp_AGL-120m_LatLon0.15_PT012H.grib2 2026-05-07 04:00 900K
20260507T00Z_MSC_GDPS_AirTemp_AGL-2m_LatLon0.15_PT012H.grib2 2026-05-07 04:00 1.0M
20260507T00Z_MSC_GDPS_AirTemp_AGL-40m_LatLon0.15_PT012H.grib2 2026-05-07 04:00 802K
20260507T00Z_MSC_GDPS_AirTemp_AGL-80m_LatLon0.15_PT012H.grib2 2026-05-07 04:00 909K
20260507T00Z_MSC_GDPS_AirTemp_IsbL-0001_LatLon0.15_PT012H.grib2 2026-05-07 04:00 516K
20260507T00Z_MSC_GDPS_AirTemp_IsbL-0005_LatLon0.15_PT012H.grib2 2026-05-07 04:00 693K
20260507T00Z_MSC_GDPS_AirTemp_IsbL-0010_LatLon0.15_PT012H.grib2 2026-05-07 04:00 702K
20260507T00Z_MSC_GDPS_AirTemp_IsbL-0020_LatLon0.15_PT012H.grib2 2026-05-07 04:00 792K
20260507T00Z_MSC_GDPS_AirTemp_IsbL-0030_LatLon0.15_PT012H.grib2 2026-05-07 04:00 839K
20260507T00Z_MSC_GDPS_AirTemp_IsbL-0050_LatLon0.15_PT012H.grib2 2026-05-07 04:00 808K
20260507T00Z_MSC_GDPS_AirTemp_IsbL-0100_LatLon0.15_PT012H.grib2 2026-05-07 04:00 949K
20260507T00Z_MSC_GDPS_AirTemp_IsbL-0150_LatLon0.15_PT012H.grib2 2026-05-07 04:00 1.0M
20260507T00Z_MSC_GDPS_AirTemp_IsbL-0175_LatLon0.15_PT012H.grib2 2026-05-07 04:00 961K
20260507T00Z_MSC_GDPS_AirTemp_IsbL-0200_LatLon0.15_PT012H.grib2 2026-05-07 04:00 1.0M
20260507T00Z_MSC_GDPS_AirTemp_IsbL-0225_LatLon0.15_PT012H.grib2 2026-05-07 04:00 1.0M
20260507T00Z_MSC_GDPS_AirTemp_IsbL-0250_LatLon0.15_PT012H.grib2 2026-05-07 04:00 1.0M
20260507T00Z_MSC_GDPS_AirTemp_IsbL-0275_LatLon0.15_PT012H.grib2 2026-05-07 04:00 1.0M
20260507T00Z_MSC_GDPS_AirTemp_IsbL-0300_LatLon0.15_PT012H.grib2 2026-05-07 04:00 1.0M
20260507T00Z_MSC_GDPS_AirTemp_IsbL-0350_LatLon0.15_PT012H.grib2 2026-05-07 04:00 938K
20260507T00Z_MSC_GDPS_AirTemp_IsbL-0400_LatLon0.15_PT012H.grib2 2026-05-07 04:00 950K
20260507T00Z_MSC_GDPS_AirTemp_IsbL-0450_LatLon0.15_PT012H.grib2 2026-05-07 04:00 971K
20260507T00Z_MSC_GDPS_AirTemp_IsbL-0500_LatLon0.15_PT012H.grib2 2026-05-07 04:00 1.0M
20260507T00Z_MSC_GDPS_AirTemp_IsbL-0550_LatLon0.15_PT012H.grib2 2026-05-07 04:00 1.0M
20260507T00Z_MSC_GDPS_AirTemp_IsbL-0600_LatLon0.15_PT012H.grib2 2026-05-07 04:00 896K
20260507T00Z_MSC_GDPS_AirTemp_IsbL-0650_LatLon0.15_PT012H.grib2 2026-05-07 04:00 928K
20260507T00Z_MSC_GDPS_AirTemp_IsbL-0700_LatLon0.15_PT012H.grib2 2026-05-07 04:00 960K
20260507T00Z_MSC_GDPS_AirTemp_IsbL-0750_LatLon0.15_PT012H.grib2 2026-05-07 04:00 1.0M
20260507T00Z_MSC_GDPS_AirTemp_IsbL-0800_LatLon0.15_PT012H.grib2 2026-05-07 04:00 1.1M
20260507T00Z_MSC_GDPS_AirTemp_IsbL-0850_LatLon0.15_PT012H.grib2 2026-05-07 04:00 1.1M
20260507T00Z_MSC_GDPS_AirTemp_IsbL-0875_LatLon0.15_PT012H.grib2 2026-05-07 04:00 1.2M
20260507T00Z_MSC_GDPS_AirTemp_IsbL-0900_LatLon0.15_PT012H.grib2 2026-05-07 04:00 1.1M
20260507T00Z_MSC_GDPS_AirTemp_IsbL-0925_LatLon0.15_PT012H.grib2 2026-05-07 04:00 1.1M
20260507T00Z_MSC_GDPS_AirTemp_IsbL-0950_LatLon0.15_PT012H.grib2 2026-05-07 04:00 1.1M
20260507T00Z_MSC_GDPS_AirTemp_IsbL-0970_LatLon0.15_PT012H.grib2 2026-05-07 04:00 1.1M
20260507T00Z_MSC_GDPS_AirTemp_IsbL-0985_LatLon0.15_PT012H.grib2 2026-05-07 04:00 1.1M
20260507T00Z_MSC_GDPS_AirTemp_IsbL-1000_LatLon0.15_PT012H.grib2 2026-05-07 04:00 1.1M
20260507T00Z_MSC_GDPS_AirTemp_IsbL-1015_LatLon0.15_PT012H.grib2 2026-05-07 04:00 1.1M
20260507T00Z_MSC_GDPS_Albedo_Sfc_LatLon0.15_PT012H.grib2 2026-05-07 04:00 240K
20260507T00Z_MSC_GDPS_CAPE_Sfc_LatLon0.15_PT012H.grib2 2026-05-07 04:00 3.8M
20260507T00Z_MSC_GDPS_CIN_Sfc_LatLon0.15_PT012H.grib2 2026-05-07 04:00 2.9M
20260507T00Z_MSC_GDPS_CloudWater_EAtm_LatLon0.15_PT012H.grib2 2026-05-07 04:00 538K
20260507T00Z_MSC_GDPS_ConvectivePrecip-Accum_Sfc_LatLon0.15_PT012H.grib2 2026-05-07 04:00 1.9M
20260507T00Z_MSC_GDPS_DewPointDepression_AGL-2m_LatLon0.15_PT012H.grib2 2026-05-07 04:00 764K
20260507T00Z_MSC_GDPS_DewPointDepression_IsbL-0010_LatLon0.15_PT012H.grib2 2026-05-07 04:00 82K
20260507T00Z_MSC_GDPS_DewPointDepression_IsbL-0020_LatLon0.15_PT012H.grib2 2026-05-07 04:00 74K
20260507T00Z_MSC_GDPS_DewPointDepression_IsbL-0030_LatLon0.15_PT012H.grib2 2026-05-07 04:00 91K
20260507T00Z_MSC_GDPS_DewPointDepression_IsbL-0050_LatLon0.15_PT012H.grib2 2026-05-07 04:00 383K
20260507T00Z_MSC_GDPS_DewPointDepression_IsbL-0100_LatLon0.15_PT012H.grib2 2026-05-07 04:00 399K
20260507T00Z_MSC_GDPS_DewPointDepression_IsbL-0150_LatLon0.15_PT012H.grib2 2026-05-07 04:00 496K
20260507T00Z_MSC_GDPS_DewPointDepression_IsbL-0175_LatLon0.15_PT012H.grib2 2026-05-07 04:00 597K
20260507T00Z_MSC_GDPS_DewPointDepression_IsbL-0200_LatLon0.15_PT012H.grib2 2026-05-07 04:00 706K
20260507T00Z_MSC_GDPS_DewPointDepression_IsbL-0225_LatLon0.15_PT012H.grib2 2026-05-07 04:00 791K
20260507T00Z_MSC_GDPS_DewPointDepression_IsbL-0250_LatLon0.15_PT012H.grib2 2026-05-07 04:00 881K
20260507T00Z_MSC_GDPS_DewPointDepression_IsbL-0275_LatLon0.15_PT012H.grib2 2026-05-07 04:00 907K
20260507T00Z_MSC_GDPS_DewPointDepression_IsbL-0300_LatLon0.15_PT012H.grib2 2026-05-07 04:00 949K
20260507T00Z_MSC_GDPS_DewPointDepression_IsbL-0350_LatLon0.15_PT012H.grib2 2026-05-07 04:00 965K
20260507T00Z_MSC_GDPS_DewPointDepression_IsbL-0400_LatLon0.15_PT012H.grib2 2026-05-07 04:00 1.0M
20260507T00Z_MSC_GDPS_DewPointDepression_IsbL-0450_LatLon0.15_PT012H.grib2 2026-05-07 04:00 1.0M
20260507T00Z_MSC_GDPS_DewPointDepression_IsbL-0500_LatLon0.15_PT012H.grib2 2026-05-07 04:00 1.0M
20260507T00Z_MSC_GDPS_DewPointDepression_IsbL-0550_LatLon0.15_PT012H.grib2 2026-05-07 04:00 1.0M
20260507T00Z_MSC_GDPS_DewPointDepression_IsbL-0600_LatLon0.15_PT012H.grib2 2026-05-07 04:00 1.0M
20260507T00Z_MSC_GDPS_DewPointDepression_IsbL-0650_LatLon0.15_PT012H.grib2 2026-05-07 04:00 1.0M
20260507T00Z_MSC_GDPS_DewPointDepression_IsbL-0700_LatLon0.15_PT012H.grib2 2026-05-07 04:00 1.1M
20260507T00Z_MSC_GDPS_DewPointDepression_IsbL-0750_LatLon0.15_PT012H.grib2 2026-05-07 04:00 1.1M
20260507T00Z_MSC_GDPS_DewPointDepression_IsbL-0800_LatLon0.15_PT012H.grib2 2026-05-07 04:00 1.2M
20260507T00Z_MSC_GDPS_DewPointDepression_IsbL-0850_LatLon0.15_PT012H.grib2 2026-05-07 04:00 1.2M
20260507T00Z_MSC_GDPS_DewPointDepression_IsbL-0875_LatLon0.15_PT012H.grib2 2026-05-07 04:00 1.1M
20260507T00Z_MSC_GDPS_DewPointDepression_IsbL-0900_LatLon0.15_PT012H.grib2 2026-05-07 04:00 1.1M
20260507T00Z_MSC_GDPS_DewPointDepression_IsbL-0925_LatLon0.15_PT012H.grib2 2026-05-07 04:00 1.0M
20260507T00Z_MSC_GDPS_DewPointDepression_IsbL-0950_LatLon0.15_PT012H.grib2 2026-05-07 04:00 1.0M
20260507T00Z_MSC_GDPS_DewPointDepression_IsbL-0970_LatLon0.15_PT012H.grib2 2026-05-07 04:00 1.0M
20260507T00Z_MSC_GDPS_DewPointDepression_IsbL-0985_LatLon0.15_PT012H.grib2 2026-05-07 04:00 1.0M
20260507T00Z_MSC_GDPS_DewPointDepression_IsbL-1000_LatLon0.15_PT012H.grib2 2026-05-07 04:00 1.0M
20260507T00Z_MSC_GDPS_DewPointDepression_IsbL-1015_LatLon0.15_PT012H.grib2 2026-05-07 04:00 919K
20260507T00Z_MSC_GDPS_DewPoint_AGL-2m_LatLon0.15_PT012H.grib2 2026-05-07 04:00 611K
20260507T00Z_MSC_GDPS_DownwardLongwaveRadiationFlux-Accum_Sfc_LatLon0.15_PT012H.grib2 2026-05-07 04:00 1.0M
20260507T00Z_MSC_GDPS_DownwardShortwaveRadiationFlux-Accum_NTAtm_LatLon0.15_PT012H.grib2 2026-05-07 04:00 339K
20260507T00Z_MSC_GDPS_DownwardShortwaveRadiationFlux-Accum_Sfc_LatLon0.15_PT012H.grib2 2026-05-07 04:00 916K
20260507T00Z_MSC_GDPS_FreezingRain-Accum12h_Sfc_LatLon0.15_PT012H.grib2 2026-05-07 04:00 92K
20260507T00Z_MSC_GDPS_FreezingRain-Accum1h_Sfc_LatLon0.15_PT012H.grib2 2026-05-07 04:00 37K
20260507T00Z_MSC_GDPS_FreezingRain-Accum3h_Sfc_LatLon0.15_PT012H.grib2 2026-05-07 04:00 47K
20260507T00Z_MSC_GDPS_FreezingRain-Accum6h_Sfc_LatLon0.15_PT012H.grib2 2026-05-07 04:00 66K
20260507T00Z_MSC_GDPS_FreezingRain-Accum_Sfc_LatLon0.15_PT012H.grib2 2026-05-07 04:00 104K
20260507T00Z_MSC_GDPS_GeopotentialHeight_IsbL-0001_LatLon0.15_PT012H.grib2 2026-05-07 04:00 446K
20260507T00Z_MSC_GDPS_GeopotentialHeight_IsbL-0005_LatLon0.15_PT012H.grib2 2026-05-07 04:00 485K
20260507T00Z_MSC_GDPS_GeopotentialHeight_IsbL-0010_LatLon0.15_PT012H.grib2 2026-05-07 04:00 475K
20260507T00Z_MSC_GDPS_GeopotentialHeight_IsbL-0020_LatLon0.15_PT012H.grib2 2026-05-07 04:00 416K
20260507T00Z_MSC_GDPS_GeopotentialHeight_IsbL-0030_LatLon0.15_PT012H.grib2 2026-05-07 04:00 421K
20260507T00Z_MSC_GDPS_GeopotentialHeight_IsbL-0050_LatLon0.15_PT012H.grib2 2026-05-07 04:00 577K
20260507T00Z_MSC_GDPS_GeopotentialHeight_IsbL-0100_LatLon0.15_PT012H.grib2 2026-05-07 04:00 608K
20260507T00Z_MSC_GDPS_GeopotentialHeight_IsbL-0150_LatLon0.15_PT012H.grib2 2026-05-07 04:00 631K
20260507T00Z_MSC_GDPS_GeopotentialHeight_IsbL-0175_LatLon0.15_PT012H.grib2 2026-05-07 04:00 636K
20260507T00Z_MSC_GDPS_GeopotentialHeight_IsbL-0200_LatLon0.15_PT012H.grib2 2026-05-07 04:00 639K
20260507T00Z_MSC_GDPS_GeopotentialHeight_IsbL-0225_LatLon0.15_PT012H.grib2 2026-05-07 04:00 642K
20260507T00Z_MSC_GDPS_GeopotentialHeight_IsbL-0250_LatLon0.15_PT012H.grib2 2026-05-07 04:00 643K
20260507T00Z_MSC_GDPS_GeopotentialHeight_IsbL-0275_LatLon0.15_PT012H.grib2 2026-05-07 04:00 641K
20260507T00Z_MSC_GDPS_GeopotentialHeight_IsbL-0300_LatLon0.15_PT012H.grib2 2026-05-07 04:00 641K
20260507T00Z_MSC_GDPS_GeopotentialHeight_IsbL-0350_LatLon0.15_PT012H.grib2 2026-05-07 04:00 631K
20260507T00Z_MSC_GDPS_GeopotentialHeight_IsbL-0400_LatLon0.15_PT012H.grib2 2026-05-07 04:00 622K
20260507T00Z_MSC_GDPS_GeopotentialHeight_IsbL-0450_LatLon0.15_PT012H.grib2 2026-05-07 04:00 544K
20260507T00Z_MSC_GDPS_GeopotentialHeight_IsbL-0500_LatLon0.15_PT012H.grib2 2026-05-07 04:00 532K
20260507T00Z_MSC_GDPS_GeopotentialHeight_IsbL-0550_LatLon0.15_PT012H.grib2 2026-05-07 04:00 528K
20260507T00Z_MSC_GDPS_GeopotentialHeight_IsbL-0600_LatLon0.15_PT012H.grib2 2026-05-07 04:00 691K
20260507T00Z_MSC_GDPS_GeopotentialHeight_IsbL-0650_LatLon0.15_PT012H.grib2 2026-05-07 04:00 693K
20260507T00Z_MSC_GDPS_GeopotentialHeight_IsbL-0700_LatLon0.15_PT012H.grib2 2026-05-07 04:00 691K
20260507T00Z_MSC_GDPS_GeopotentialHeight_IsbL-0750_LatLon0.15_PT012H.grib2 2026-05-07 04:00 701K
20260507T00Z_MSC_GDPS_GeopotentialHeight_IsbL-0800_LatLon0.15_PT012H.grib2 2026-05-07 04:00 710K
20260507T00Z_MSC_GDPS_GeopotentialHeight_IsbL-0850_LatLon0.15_PT012H.grib2 2026-05-07 04:00 716K
20260507T00Z_MSC_GDPS_GeopotentialHeight_IsbL-0875_LatLon0.15_PT012H.grib2 2026-05-07 04:00 723K
20260507T00Z_MSC_GDPS_GeopotentialHeight_IsbL-0900_LatLon0.15_PT012H.grib2 2026-05-07 04:00 723K
20260507T00Z_MSC_GDPS_GeopotentialHeight_IsbL-0925_LatLon0.15_PT012H.grib2 2026-05-07 04:00 733K
20260507T00Z_MSC_GDPS_GeopotentialHeight_IsbL-0950_LatLon0.15_PT012H.grib2 2026-05-07 04:00 739K
20260507T00Z_MSC_GDPS_GeopotentialHeight_IsbL-0970_LatLon0.15_PT012H.grib2 2026-05-07 04:00 751K
20260507T00Z_MSC_GDPS_GeopotentialHeight_IsbL-0985_LatLon0.15_PT012H.grib2 2026-05-07 04:00 765K
20260507T00Z_MSC_GDPS_GeopotentialHeight_IsbL-1000_LatLon0.15_PT012H.grib2 2026-05-07 04:00 786K
20260507T00Z_MSC_GDPS_GeopotentialHeight_IsbL-1015_LatLon0.15_PT012H.grib2 2026-05-07 04:00 807K
20260507T00Z_MSC_GDPS_Humidex_Sfc_LatLon0.15_PT012H.grib2 2026-05-07 04:00 5.3M
20260507T00Z_MSC_GDPS_IcePellets-Accum12h_Sfc_LatLon0.15_PT012H.grib2 2026-05-07 04:00 13K
20260507T00Z_MSC_GDPS_IcePellets-Accum1h_Sfc_LatLon0.15_PT012H.grib2 2026-05-07 04:00 8.7K
20260507T00Z_MSC_GDPS_IcePellets-Accum3h_Sfc_LatLon0.15_PT012H.grib2 2026-05-07 04:00 11K
20260507T00Z_MSC_GDPS_IcePellets-Accum6h_Sfc_LatLon0.15_PT012H.grib2 2026-05-07 04:00 13K
20260507T00Z_MSC_GDPS_IcePellets-Accum_Sfc_LatLon0.15_PT012H.grib2 2026-05-07 04:00 14K
20260507T00Z_MSC_GDPS_KIndex_Sfc_LatLon0.15_PT012H.grib2 2026-05-07 04:00 6.4M
20260507T00Z_MSC_GDPS_LatentHeatNetFlux_Sfc_LatLon0.15_PT012H.grib2 2026-05-07 04:00 731K
20260507T00Z_MSC_GDPS_LiftedIndex-MU-VT_IsbL-0500_LatLon0.15_PT012H.grib2 2026-05-07 04:00 5.4M
20260507T00Z_MSC_GDPS_NetLongwaveRadiationFlux-Accum_Sfc_LatLon0.15_PT012H.grib2 2026-05-07 04:00 1.3M
20260507T00Z_MSC_GDPS_NetShortwaveRadiationFlux-Accum_Sfc_LatLon0.15_PT012H.grib2 2026-05-07 04:00 858K
20260507T00Z_MSC_GDPS_O3MixingRatio_Sfc_LatLon0.15_PT012H.grib2 2026-05-07 04:54 2.4M
20260507T00Z_MSC_GDPS_O3_EAtm_LatLon0.15_PT012H.grib2 2026-05-07 04:54 2.5M
20260507T00Z_MSC_GDPS_PlanetaryBoundaryLayerHeight_Sfc_LatLon0.15_PT012H.grib2 2026-05-07 04:00 2.5M
20260507T00Z_MSC_GDPS_Precip-Accum12h_Sfc_LatLon0.15_PT012H.grib2 2026-05-07 04:00 4.0M
20260507T00Z_MSC_GDPS_Precip-Accum1h_Sfc_LatLon0.15_PT012H.grib2 2026-05-07 04:00 3.3M
20260507T00Z_MSC_GDPS_Precip-Accum3h_Sfc_LatLon0.15_PT012H.grib2 2026-05-07 04:00 3.5M
20260507T00Z_MSC_GDPS_Precip-Accum6h_Sfc_LatLon0.15_PT012H.grib2 2026-05-07 04:00 3.9M
20260507T00Z_MSC_GDPS_Precip-Accum_Sfc_LatLon0.15_PT012H.grib2 2026-05-07 04:00 4.2M
20260507T00Z_MSC_GDPS_PrecipRate_Sfc_LatLon0.15_PT012H.grib2 2026-05-07 04:00 3.0M
20260507T00Z_MSC_GDPS_PrecipType-Instant_Sfc_LatLon0.15_PT012H.grib2 2026-05-07 04:00 1.6M
20260507T00Z_MSC_GDPS_Pressure_MSL_LatLon0.15_PT012H.grib2 2026-05-07 04:00 721K
20260507T00Z_MSC_GDPS_Pressure_PVU-1.5_LatLon0.15_PT012H.grib2 2026-05-07 04:00 5.8M
20260507T00Z_MSC_GDPS_Pressure_PVU-1_LatLon0.15_PT012H.grib2 2026-05-07 04:00 6.0M
20260507T00Z_MSC_GDPS_Pressure_PVU-2_LatLon0.15_PT012H.grib2 2026-05-07 04:00 5.6M
20260507T00Z_MSC_GDPS_Pressure_Sfc_LatLon0.15_PT012H.grib2 2026-05-07 04:00 1.1M
20260507T00Z_MSC_GDPS_RadiativeTemp_Sfc_LatLon0.15_PT012H.grib2 2026-05-07 04:00 495K
20260507T00Z_MSC_GDPS_Rain-Accum12h_Sfc_LatLon0.15_PT012H.grib2 2026-05-07 04:00 2.8M
20260507T00Z_MSC_GDPS_Rain-Accum1h_Sfc_LatLon0.15_PT012H.grib2 2026-05-07 04:00 1.7M
20260507T00Z_MSC_GDPS_Rain-Accum3h_Sfc_LatLon0.15_PT012H.grib2 2026-05-07 04:00 1.7M
20260507T00Z_MSC_GDPS_Rain-Accum6h_Sfc_LatLon0.15_PT012H.grib2 2026-05-07 04:00 2.5M
20260507T00Z_MSC_GDPS_Rain-Accum_Sfc_LatLon0.15_PT012H.grib2 2026-05-07 04:00 3.0M
20260507T00Z_MSC_GDPS_RelativeHumidity_AGL-2m_LatLon0.15_PT012H.grib2 2026-05-07 04:00 1.1M
20260507T00Z_MSC_GDPS_RelativeHumidity_IsbL-0010_LatLon0.15_PT012H.grib2 2026-05-07 04:00 148K
20260507T00Z_MSC_GDPS_RelativeHumidity_IsbL-0020_LatLon0.15_PT012H.grib2 2026-05-07 04:00 178K
20260507T00Z_MSC_GDPS_RelativeHumidity_IsbL-0030_LatLon0.15_PT012H.grib2 2026-05-07 04:00 275K
20260507T00Z_MSC_GDPS_RelativeHumidity_IsbL-0050_LatLon0.15_PT012H.grib2 2026-05-07 04:00 338K
20260507T00Z_MSC_GDPS_RelativeHumidity_IsbL-0100_LatLon0.15_PT012H.grib2 2026-05-07 04:00 525K
20260507T00Z_MSC_GDPS_RelativeHumidity_IsbL-0150_LatLon0.15_PT012H.grib2 2026-05-07 04:00 685K
20260507T00Z_MSC_GDPS_RelativeHumidity_IsbL-0175_LatLon0.15_PT012H.grib2 2026-05-07 04:00 600K
20260507T00Z_MSC_GDPS_RelativeHumidity_IsbL-0200_LatLon0.15_PT012H.grib2 2026-05-07 04:00 713K
20260507T00Z_MSC_GDPS_RelativeHumidity_IsbL-0225_LatLon0.15_PT012H.grib2 2026-05-07 04:00 799K
20260507T00Z_MSC_GDPS_RelativeHumidity_IsbL-0250_LatLon0.15_PT012H.grib2 2026-05-07 04:00 870K
20260507T00Z_MSC_GDPS_RelativeHumidity_IsbL-0275_LatLon0.15_PT012H.grib2 2026-05-07 04:00 892K
20260507T00Z_MSC_GDPS_RelativeHumidity_IsbL-0300_LatLon0.15_PT012H.grib2 2026-05-07 04:00 935K
20260507T00Z_MSC_GDPS_RelativeHumidity_IsbL-0350_LatLon0.15_PT012H.grib2 2026-05-07 04:00 951K
20260507T00Z_MSC_GDPS_RelativeHumidity_IsbL-0400_LatLon0.15_PT012H.grib2 2026-05-07 04:00 1.0M
20260507T00Z_MSC_GDPS_RelativeHumidity_IsbL-0450_LatLon0.15_PT012H.grib2 2026-05-07 04:00 1.0M
20260507T00Z_MSC_GDPS_RelativeHumidity_IsbL-0500_LatLon0.15_PT012H.grib2 2026-05-07 04:00 1.0M
20260507T00Z_MSC_GDPS_RelativeHumidity_IsbL-0550_LatLon0.15_PT012H.grib2 2026-05-07 04:00 1.1M
20260507T00Z_MSC_GDPS_RelativeHumidity_IsbL-0600_LatLon0.15_PT012H.grib2 2026-05-07 04:00 1.1M
20260507T00Z_MSC_GDPS_RelativeHumidity_IsbL-0650_LatLon0.15_PT012H.grib2 2026-05-07 04:00 1.1M
20260507T00Z_MSC_GDPS_RelativeHumidity_IsbL-0700_LatLon0.15_PT012H.grib2 2026-05-07 04:00 1.1M
20260507T00Z_MSC_GDPS_RelativeHumidity_IsbL-0750_LatLon0.15_PT012H.grib2 2026-05-07 04:00 1.2M
20260507T00Z_MSC_GDPS_RelativeHumidity_IsbL-0800_LatLon0.15_PT012H.grib2 2026-05-07 04:00 1.3M
20260507T00Z_MSC_GDPS_RelativeHumidity_IsbL-0850_LatLon0.15_PT012H.grib2 2026-05-07 04:00 1.3M
20260507T00Z_MSC_GDPS_RelativeHumidity_IsbL-0875_LatLon0.15_PT012H.grib2 2026-05-07 04:00 1.3M
20260507T00Z_MSC_GDPS_RelativeHumidity_IsbL-0900_LatLon0.15_PT012H.grib2 2026-05-07 04:00 1.3M
20260507T00Z_MSC_GDPS_RelativeHumidity_IsbL-0925_LatLon0.15_PT012H.grib2 2026-05-07 04:00 1.2M
20260507T00Z_MSC_GDPS_RelativeHumidity_IsbL-0950_LatLon0.15_PT012H.grib2 2026-05-07 04:00 1.2M
20260507T00Z_MSC_GDPS_RelativeHumidity_IsbL-0970_LatLon0.15_PT012H.grib2 2026-05-07 04:00 1.2M
20260507T00Z_MSC_GDPS_RelativeHumidity_IsbL-0985_LatLon0.15_PT012H.grib2 2026-05-07 04:00 1.1M
20260507T00Z_MSC_GDPS_RelativeHumidity_IsbL-1000_LatLon0.15_PT012H.grib2 2026-05-07 04:00 1.1M
20260507T00Z_MSC_GDPS_RelativeHumidity_IsbL-1015_LatLon0.15_PT012H.grib2 2026-05-07 04:00 1.0M
20260507T00Z_MSC_GDPS_RelativeVorticity_IsbL-0200_LatLon0.15_PT012H.grib2 2026-05-07 04:00 1.5M
20260507T00Z_MSC_GDPS_RelativeVorticity_IsbL-0250_LatLon0.15_PT012H.grib2 2026-05-07 04:00 1.6M
20260507T00Z_MSC_GDPS_RelativeVorticity_IsbL-0500_LatLon0.15_PT012H.grib2 2026-05-07 04:00 1.2M
20260507T00Z_MSC_GDPS_RelativeVorticity_IsbL-0700_LatLon0.15_PT012H.grib2 2026-05-07 04:00 1.7M
20260507T00Z_MSC_GDPS_RelativeVorticity_IsbL-0850_LatLon0.15_PT012H.grib2 2026-05-07 04:00 1.6M
20260507T00Z_MSC_GDPS_Runoff-Accum_Sfc_LatLon0.15_PT012H.grib2 2026-05-07 04:00 82K
20260507T00Z_MSC_GDPS_SensibleHeatNetFlux_Sfc_LatLon0.15_PT012H.grib2 2026-05-07 04:00 488K
20260507T00Z_MSC_GDPS_ShowalterIndex_IsbL-0500_LatLon0.15_PT012H.grib2 2026-05-07 04:00 6.2M
20260507T00Z_MSC_GDPS_Snow-Accum12h_Sfc_LatLon0.15_PT012H.grib2 2026-05-07 04:00 1.5M
20260507T00Z_MSC_GDPS_Snow-Accum1h_Sfc_LatLon0.15_PT012H.grib2 2026-05-07 04:00 1.0M
20260507T00Z_MSC_GDPS_Snow-Accum3h_Sfc_LatLon0.15_PT012H.grib2 2026-05-07 04:00 1.1M
20260507T00Z_MSC_GDPS_Snow-Accum6h_Sfc_LatLon0.15_PT012H.grib2 2026-05-07 04:00 1.4M
20260507T00Z_MSC_GDPS_Snow-Accum_Sfc_LatLon0.15_PT012H.grib2 2026-05-07 04:00 1.7M
20260507T00Z_MSC_GDPS_SnowDensity_Sfc_LatLon0.15_PT012H.grib2 2026-05-07 04:00 247K
20260507T00Z_MSC_GDPS_SnowDepth_Sfc_LatLon0.15_PT012H.grib2 2026-05-07 04:00 1.7M
20260507T00Z_MSC_GDPS_SoilTemp_DBS-0to10cm_LatLon0.15_PT012H.grib2 2026-05-07 04:00 499K
20260507T00Z_MSC_GDPS_SoilTemp_Sfc_LatLon0.15_PT012H.grib2 2026-05-07 04:00 588K
20260507T00Z_MSC_GDPS_SoilVolumetricIceContent_Sfc_LatLon0.15_PT012H.grib2 2026-05-07 04:00 186K
20260507T00Z_MSC_GDPS_SoilVolumetricWaterContent_DBS-0to10cm_LatLon0.15_PT012H.grib2 2026-05-07 04:00 594K
20260507T00Z_MSC_GDPS_SoilVolumetricWaterContent_DBS-0to1cm_LatLon0.15_PT012H.grib2 2026-05-07 04:00 644K
20260507T00Z_MSC_GDPS_SpecificHumidity_AGL-120m_LatLon0.15_PT012H.grib2 2026-05-07 04:00 1.1M
20260507T00Z_MSC_GDPS_SpecificHumidity_AGL-2m_LatLon0.15_PT012H.grib2 2026-05-07 04:00 1.2M
20260507T00Z_MSC_GDPS_SpecificHumidity_AGL-40m_LatLon0.15_PT012H.grib2 2026-05-07 04:00 1.1M
20260507T00Z_MSC_GDPS_SpecificHumidity_AGL-80m_LatLon0.15_PT012H.grib2 2026-05-07 04:00 1.1M
20260507T00Z_MSC_GDPS_SpecificHumidity_IsbL-0001_LatLon0.15_PT012H.grib2 2026-05-07 04:00 1.1M
20260507T00Z_MSC_GDPS_SpecificHumidity_IsbL-0005_LatLon0.15_PT012H.grib2 2026-05-07 04:00 1.3M
20260507T00Z_MSC_GDPS_SpecificHumidity_IsbL-0010_LatLon0.15_PT012H.grib2 2026-05-07 04:00 1.4M
20260507T00Z_MSC_GDPS_SpecificHumidity_IsbL-0020_LatLon0.15_PT012H.grib2 2026-05-07 04:00 1.4M
20260507T00Z_MSC_GDPS_SpecificHumidity_IsbL-0030_LatLon0.15_PT012H.grib2 2026-05-07 04:00 1.4M
20260507T00Z_MSC_GDPS_SpecificHumidity_IsbL-0050_LatLon0.15_PT012H.grib2 2026-05-07 04:00 1.4M
20260507T00Z_MSC_GDPS_SpecificHumidity_IsbL-0100_LatLon0.15_PT012H.grib2 2026-05-07 04:00 1.4M
20260507T00Z_MSC_GDPS_SpecificHumidity_IsbL-0150_LatLon0.15_PT012H.grib2 2026-05-07 04:00 1.3M
20260507T00Z_MSC_GDPS_SpecificHumidity_IsbL-0175_LatLon0.15_PT012H.grib2 2026-05-07 04:00 1.3M
20260507T00Z_MSC_GDPS_SpecificHumidity_IsbL-0200_LatLon0.15_PT012H.grib2 2026-05-07 04:00 1.3M
20260507T00Z_MSC_GDPS_SpecificHumidity_IsbL-0225_LatLon0.15_PT012H.grib2 2026-05-07 04:00 1.3M
20260507T00Z_MSC_GDPS_SpecificHumidity_IsbL-0250_LatLon0.15_PT012H.grib2 2026-05-07 04:00 1.2M
20260507T00Z_MSC_GDPS_SpecificHumidity_IsbL-0275_LatLon0.15_PT012H.grib2 2026-05-07 04:00 1.3M
20260507T00Z_MSC_GDPS_SpecificHumidity_IsbL-0300_LatLon0.15_PT012H.grib2 2026-05-07 04:00 1.3M
20260507T00Z_MSC_GDPS_SpecificHumidity_IsbL-0350_LatLon0.15_PT012H.grib2 2026-05-07 04:00 1.2M
20260507T00Z_MSC_GDPS_SpecificHumidity_IsbL-0400_LatLon0.15_PT012H.grib2 2026-05-07 04:00 1.5M
20260507T00Z_MSC_GDPS_SpecificHumidity_IsbL-0450_LatLon0.15_PT012H.grib2 2026-05-07 04:00 1.3M
20260507T00Z_MSC_GDPS_SpecificHumidity_IsbL-0500_LatLon0.15_PT012H.grib2 2026-05-07 04:00 1.4M
20260507T00Z_MSC_GDPS_SpecificHumidity_IsbL-0550_LatLon0.15_PT012H.grib2 2026-05-07 04:00 1.6M
20260507T00Z_MSC_GDPS_SpecificHumidity_IsbL-0600_LatLon0.15_PT012H.grib2 2026-05-07 04:00 1.7M
20260507T00Z_MSC_GDPS_SpecificHumidity_IsbL-0650_LatLon0.15_PT012H.grib2 2026-05-07 04:00 1.5M
20260507T00Z_MSC_GDPS_SpecificHumidity_IsbL-0700_LatLon0.15_PT012H.grib2 2026-05-07 04:00 1.6M
20260507T00Z_MSC_GDPS_SpecificHumidity_IsbL-0750_LatLon0.15_PT012H.grib2 2026-05-07 04:00 1.7M
20260507T00Z_MSC_GDPS_SpecificHumidity_IsbL-0800_LatLon0.15_PT012H.grib2 2026-05-07 04:00 1.9M
20260507T00Z_MSC_GDPS_SpecificHumidity_IsbL-0850_LatLon0.15_PT012H.grib2 2026-05-07 04:00 2.0M
20260507T00Z_MSC_GDPS_SpecificHumidity_IsbL-0875_LatLon0.15_PT012H.grib2 2026-05-07 04:00 2.0M
20260507T00Z_MSC_GDPS_SpecificHumidity_IsbL-0900_LatLon0.15_PT012H.grib2 2026-05-07 04:00 1.6M
20260507T00Z_MSC_GDPS_SpecificHumidity_IsbL-0925_LatLon0.15_PT012H.grib2 2026-05-07 04:00 1.6M
20260507T00Z_MSC_GDPS_SpecificHumidity_IsbL-0950_LatLon0.15_PT012H.grib2 2026-05-07 04:00 1.6M
20260507T00Z_MSC_GDPS_SpecificHumidity_IsbL-0970_LatLon0.15_PT012H.grib2 2026-05-07 04:00 1.6M
20260507T00Z_MSC_GDPS_SpecificHumidity_IsbL-0985_LatLon0.15_PT012H.grib2 2026-05-07 04:00 1.5M
20260507T00Z_MSC_GDPS_SpecificHumidity_IsbL-1000_LatLon0.15_PT012H.grib2 2026-05-07 04:00 1.5M
20260507T00Z_MSC_GDPS_SpecificHumidity_IsbL-1015_LatLon0.15_PT012H.grib2 2026-05-07 04:00 1.5M
20260507T00Z_MSC_GDPS_SpecificHumidity_Sfc_LatLon0.15_PT012H.grib2 2026-05-07 04:00 593K
20260507T00Z_MSC_GDPS_Thickness_IsbL-0850to0700_LatLon0.15_PT012H.grib2 2026-05-07 04:00 474K
20260507T00Z_MSC_GDPS_Thickness_IsbL-1000to0500_LatLon0.15_PT012H.grib2 2026-05-07 04:00 370K
20260507T00Z_MSC_GDPS_Thickness_IsbL-1000to0850_LatLon0.15_PT012H.grib2 2026-05-07 04:00 491K
20260507T00Z_MSC_GDPS_TotalCloudCover_Sfc_LatLon0.15_PT012H.grib2 2026-05-07 04:00 832K
20260507T00Z_MSC_GDPS_TotalTotalsIndex_Sfc_LatLon0.15_PT012H.grib2 2026-05-07 04:00 6.2M
20260507T00Z_MSC_GDPS_UVIndex-ClearSky_Sfc_LatLon0.15_PT012H.grib2 2026-05-07 04:54 1.0M
20260507T00Z_MSC_GDPS_UVIndex_Sfc_LatLon0.15_PT012H.grib2 2026-05-07 04:54 1.5M
20260507T00Z_MSC_GDPS_UpwardLongwaveRadiationFlux_NTAtm_LatLon0.15_PT012H.grib2 2026-05-07 04:00 842K
20260507T00Z_MSC_GDPS_VerticalVelocity_IsbL-0200_LatLon0.15_PT012H.grib2 2026-05-07 04:00 1.2M
20260507T00Z_MSC_GDPS_VerticalVelocity_IsbL-0250_LatLon0.15_PT012H.grib2 2026-05-07 04:00 1.1M
20260507T00Z_MSC_GDPS_VerticalVelocity_IsbL-0500_LatLon0.15_PT012H.grib2 2026-05-07 04:00 1.0M
20260507T00Z_MSC_GDPS_VerticalVelocity_IsbL-0600_LatLon0.15_PT012H.grib2 2026-05-07 04:00 1.1M
20260507T00Z_MSC_GDPS_VerticalVelocity_IsbL-0700_LatLon0.15_PT012H.grib2 2026-05-07 04:00 1.1M
20260507T00Z_MSC_GDPS_VerticalVelocity_IsbL-0850_LatLon0.15_PT012H.grib2 2026-05-07 04:00 1.3M
20260507T00Z_MSC_GDPS_WindChill_Sfc_LatLon0.15_PT012H.grib2 2026-05-07 04:00 5.3M
20260507T00Z_MSC_GDPS_WindDir_AGL-10m_LatLon0.15_PT012H.grib2 2026-05-07 04:00 1.3M
20260507T00Z_MSC_GDPS_WindDir_AGL-120m_LatLon0.15_PT012H.grib2 2026-05-07 04:00 1.3M
20260507T00Z_MSC_GDPS_WindDir_AGL-40m_LatLon0.15_PT012H.grib2 2026-05-07 04:00 1.4M
20260507T00Z_MSC_GDPS_WindDir_AGL-80m_LatLon0.15_PT012H.grib2 2026-05-07 04:00 1.3M
20260507T00Z_MSC_GDPS_WindDir_IsbL-0001_LatLon0.15_PT012H.grib2 2026-05-07 04:00 677K
20260507T00Z_MSC_GDPS_WindDir_IsbL-0005_LatLon0.15_PT012H.grib2 2026-05-07 04:00 847K
20260507T00Z_MSC_GDPS_WindDir_IsbL-0010_LatLon0.15_PT012H.grib2 2026-05-07 04:00 858K
20260507T00Z_MSC_GDPS_WindDir_IsbL-0020_LatLon0.15_PT012H.grib2 2026-05-07 04:00 945K
20260507T00Z_MSC_GDPS_WindDir_IsbL-0030_LatLon0.15_PT012H.grib2 2026-05-07 04:00 937K
20260507T00Z_MSC_GDPS_WindDir_IsbL-0050_LatLon0.15_PT012H.grib2 2026-05-07 04:00 955K
20260507T00Z_MSC_GDPS_WindDir_IsbL-0100_LatLon0.15_PT012H.grib2 2026-05-07 04:00 1.0M
20260507T00Z_MSC_GDPS_WindDir_IsbL-0150_LatLon0.15_PT012H.grib2 2026-05-07 04:00 1.0M
20260507T00Z_MSC_GDPS_WindDir_IsbL-0175_LatLon0.15_PT012H.grib2 2026-05-07 04:00 1.1M
20260507T00Z_MSC_GDPS_WindDir_IsbL-0200_LatLon0.15_PT012H.grib2 2026-05-07 04:00 1.1M
20260507T00Z_MSC_GDPS_WindDir_IsbL-0225_LatLon0.15_PT012H.grib2 2026-05-07 04:00 1.1M
20260507T00Z_MSC_GDPS_WindDir_IsbL-0250_LatLon0.15_PT012H.grib2 2026-05-07 04:00 1.1M
20260507T00Z_MSC_GDPS_WindDir_IsbL-0275_LatLon0.15_PT012H.grib2 2026-05-07 04:00 1.2M
20260507T00Z_MSC_GDPS_WindDir_IsbL-0300_LatLon0.15_PT012H.grib2 2026-05-07 04:00 1.2M
20260507T00Z_MSC_GDPS_WindDir_IsbL-0350_LatLon0.15_PT012H.grib2 2026-05-07 04:00 1.3M
20260507T00Z_MSC_GDPS_WindDir_IsbL-0400_LatLon0.15_PT012H.grib2 2026-05-07 04:00 1.3M
20260507T00Z_MSC_GDPS_WindDir_IsbL-0450_LatLon0.15_PT012H.grib2 2026-05-07 04:00 1.3M
20260507T00Z_MSC_GDPS_WindDir_IsbL-0500_LatLon0.15_PT012H.grib2 2026-05-07 04:00 1.4M
20260507T00Z_MSC_GDPS_WindDir_IsbL-0550_LatLon0.15_PT012H.grib2 2026-05-07 04:00 1.4M
20260507T00Z_MSC_GDPS_WindDir_IsbL-0600_LatLon0.15_PT012H.grib2 2026-05-07 04:00 1.4M
20260507T00Z_MSC_GDPS_WindDir_IsbL-0650_LatLon0.15_PT012H.grib2 2026-05-07 04:00 1.5M
20260507T00Z_MSC_GDPS_WindDir_IsbL-0700_LatLon0.15_PT012H.grib2 2026-05-07 04:00 1.6M
20260507T00Z_MSC_GDPS_WindDir_IsbL-0750_LatLon0.15_PT012H.grib2 2026-05-07 04:00 1.7M
20260507T00Z_MSC_GDPS_WindDir_IsbL-0800_LatLon0.15_PT012H.grib2 2026-05-07 04:00 1.8M
20260507T00Z_MSC_GDPS_WindDir_IsbL-0850_LatLon0.15_PT012H.grib2 2026-05-07 04:00 1.9M
20260507T00Z_MSC_GDPS_WindDir_IsbL-0875_LatLon0.15_PT012H.grib2 2026-05-07 04:00 1.9M
20260507T00Z_MSC_GDPS_WindDir_IsbL-0900_LatLon0.15_PT012H.grib2 2026-05-07 04:00 1.9M
20260507T00Z_MSC_GDPS_WindDir_IsbL-0925_LatLon0.15_PT012H.grib2 2026-05-07 04:00 2.0M
20260507T00Z_MSC_GDPS_WindDir_IsbL-0950_LatLon0.15_PT012H.grib2 2026-05-07 04:00 2.0M
20260507T00Z_MSC_GDPS_WindDir_IsbL-0970_LatLon0.15_PT012H.grib2 2026-05-07 04:00 2.0M
20260507T00Z_MSC_GDPS_WindDir_IsbL-0985_LatLon0.15_PT012H.grib2 2026-05-07 04:00 2.0M
20260507T00Z_MSC_GDPS_WindDir_IsbL-1000_LatLon0.15_PT012H.grib2 2026-05-07 04:00 2.0M
20260507T00Z_MSC_GDPS_WindDir_IsbL-1015_LatLon0.15_PT012H.grib2 2026-05-07 04:00 2.0M
20260507T00Z_MSC_GDPS_WindGust-Max_AGL-10m_LatLon0.15_PT012H.grib2 2026-05-07 04:00 1.8M
20260507T00Z_MSC_GDPS_WindGust-Min_AGL-10m_LatLon0.15_PT012H.grib2 2026-05-07 04:00 2.2M
20260507T00Z_MSC_GDPS_WindGust_AGL-10m_LatLon0.15_PT012H.grib2 2026-05-07 04:00 2.2M
20260507T00Z_MSC_GDPS_WindSpeed_AGL-10m_LatLon0.15_PT012H.grib2 2026-05-07 04:00 1.1M
20260507T00Z_MSC_GDPS_WindSpeed_AGL-120m_LatLon0.15_PT012H.grib2 2026-05-07 04:00 1.2M
20260507T00Z_MSC_GDPS_WindSpeed_AGL-40m_LatLon0.15_PT012H.grib2 2026-05-07 04:00 1.2M
20260507T00Z_MSC_GDPS_WindSpeed_AGL-80m_LatLon0.15_PT012H.grib2 2026-05-07 04:00 1.2M
20260507T00Z_MSC_GDPS_WindSpeed_IsbL-0001_LatLon0.15_PT012H.grib2 2026-05-07 04:00 506K
20260507T00Z_MSC_GDPS_WindSpeed_IsbL-0005_LatLon0.15_PT012H.grib2 2026-05-07 04:00 708K
20260507T00Z_MSC_GDPS_WindSpeed_IsbL-0010_LatLon0.15_PT012H.grib2 2026-05-07 04:00 641K
20260507T00Z_MSC_GDPS_WindSpeed_IsbL-0020_LatLon0.15_PT012H.grib2 2026-05-07 04:00 678K
20260507T00Z_MSC_GDPS_WindSpeed_IsbL-0030_LatLon0.15_PT012H.grib2 2026-05-07 04:00 682K
20260507T00Z_MSC_GDPS_WindSpeed_IsbL-0050_LatLon0.15_PT012H.grib2 2026-05-07 04:00 910K
20260507T00Z_MSC_GDPS_WindSpeed_IsbL-0100_LatLon0.15_PT012H.grib2 2026-05-07 04:00 1.1M
20260507T00Z_MSC_GDPS_WindSpeed_IsbL-0150_LatLon0.15_PT012H.grib2 2026-05-07 04:00 1.0M
20260507T00Z_MSC_GDPS_WindSpeed_IsbL-0175_LatLon0.15_PT012H.grib2 2026-05-07 04:00 1.0M
20260507T00Z_MSC_GDPS_WindSpeed_IsbL-0200_LatLon0.15_PT012H.grib2 2026-05-07 04:00 1.1M
20260507T00Z_MSC_GDPS_WindSpeed_IsbL-0225_LatLon0.15_PT012H.grib2 2026-05-07 04:00 1.1M
20260507T00Z_MSC_GDPS_WindSpeed_IsbL-0250_LatLon0.15_PT012H.grib2 2026-05-07 04:00 1.1M
20260507T00Z_MSC_GDPS_WindSpeed_IsbL-0275_LatLon0.15_PT012H.grib2 2026-05-07 04:00 1.1M
20260507T00Z_MSC_GDPS_WindSpeed_IsbL-0300_LatLon0.15_PT012H.grib2 2026-05-07 04:00 1.1M
20260507T00Z_MSC_GDPS_WindSpeed_IsbL-0350_LatLon0.15_PT012H.grib2 2026-05-07 04:00 1.1M
20260507T00Z_MSC_GDPS_WindSpeed_IsbL-0400_LatLon0.15_PT012H.grib2 2026-05-07 04:00 1.1M
20260507T00Z_MSC_GDPS_WindSpeed_IsbL-0450_LatLon0.15_PT012H.grib2 2026-05-07 04:00 1.1M
20260507T00Z_MSC_GDPS_WindSpeed_IsbL-0500_LatLon0.15_PT012H.grib2 2026-05-07 04:00 1.1M
20260507T00Z_MSC_GDPS_WindSpeed_IsbL-0550_LatLon0.15_PT012H.grib2 2026-05-07 04:00 1.1M
20260507T00Z_MSC_GDPS_WindSpeed_IsbL-0600_LatLon0.15_PT012H.grib2 2026-05-07 04:00 1.1M
20260507T00Z_MSC_GDPS_WindSpeed_IsbL-0650_LatLon0.15_PT012H.grib2 2026-05-07 04:00 1.5M
20260507T00Z_MSC_GDPS_WindSpeed_IsbL-0700_LatLon0.15_PT012H.grib2 2026-05-07 04:00 1.5M
20260507T00Z_MSC_GDPS_WindSpeed_IsbL-0750_LatLon0.15_PT012H.grib2 2026-05-07 04:00 1.6M
20260507T00Z_MSC_GDPS_WindSpeed_IsbL-0800_LatLon0.15_PT012H.grib2 2026-05-07 04:00 1.4M
20260507T00Z_MSC_GDPS_WindSpeed_IsbL-0850_LatLon0.15_PT012H.grib2 2026-05-07 04:00 1.8M
20260507T00Z_MSC_GDPS_WindSpeed_IsbL-0875_LatLon0.15_PT012H.grib2 2026-05-07 04:00 1.8M
20260507T00Z_MSC_GDPS_WindSpeed_IsbL-0900_LatLon0.15_PT012H.grib2 2026-05-07 04:00 1.8M
20260507T00Z_MSC_GDPS_WindSpeed_IsbL-0925_LatLon0.15_PT012H.grib2 2026-05-07 04:00 1.9M
20260507T00Z_MSC_GDPS_WindSpeed_IsbL-0950_LatLon0.15_PT012H.grib2 2026-05-07 04:00 1.9M
20260507T00Z_MSC_GDPS_WindSpeed_IsbL-0970_LatLon0.15_PT012H.grib2 2026-05-07 04:00 1.9M
20260507T00Z_MSC_GDPS_WindSpeed_IsbL-0985_LatLon0.15_PT012H.grib2 2026-05-07 04:00 1.8M
20260507T00Z_MSC_GDPS_WindSpeed_IsbL-1000_LatLon0.15_PT012H.grib2 2026-05-07 04:00 1.8M
20260507T00Z_MSC_GDPS_WindSpeed_IsbL-1015_LatLon0.15_PT012H.grib2 2026-05-07 04:00 1.8M
20260507T00Z_MSC_GDPS_WindU_AGL-10m_LatLon0.15_PT012H.grib2 2026-05-07 04:00 1.3M
20260507T00Z_MSC_GDPS_WindU_AGL-120m_LatLon0.15_PT012H.grib2 2026-05-07 04:00 963K
20260507T00Z_MSC_GDPS_WindU_AGL-40m_LatLon0.15_PT012H.grib2 2026-05-07 04:00 961K
20260507T00Z_MSC_GDPS_WindU_AGL-80m_LatLon0.15_PT012H.grib2 2026-05-07 04:00 964K
20260507T00Z_MSC_GDPS_WindU_IsbL-0001_LatLon0.15_PT012H.grib2 2026-05-07 04:00 510K
20260507T00Z_MSC_GDPS_WindU_IsbL-0005_LatLon0.15_PT012H.grib2 2026-05-07 04:00 704K
20260507T00Z_MSC_GDPS_WindU_IsbL-0010_LatLon0.15_PT012H.grib2 2026-05-07 04:00 715K
20260507T00Z_MSC_GDPS_WindU_IsbL-0020_LatLon0.15_PT012H.grib2 2026-05-07 04:00 743K
20260507T00Z_MSC_GDPS_WindU_IsbL-0030_LatLon0.15_PT012H.grib2 2026-05-07 04:00 753K
20260507T00Z_MSC_GDPS_WindU_IsbL-0050_LatLon0.15_PT012H.grib2 2026-05-07 04:00 775K
20260507T00Z_MSC_GDPS_WindU_IsbL-0100_LatLon0.15_PT012H.grib2 2026-05-07 04:00 921K
20260507T00Z_MSC_GDPS_WindU_IsbL-0150_LatLon0.15_PT012H.grib2 2026-05-07 04:00 1.0M
20260507T00Z_MSC_GDPS_WindU_IsbL-0175_LatLon0.15_PT012H.grib2 2026-05-07 04:00 1.0M
20260507T00Z_MSC_GDPS_WindU_IsbL-0200_LatLon0.15_PT012H.grib2 2026-05-07 04:00 845K
20260507T00Z_MSC_GDPS_WindU_IsbL-0225_LatLon0.15_PT012H.grib2 2026-05-07 04:00 855K
20260507T00Z_MSC_GDPS_WindU_IsbL-0250_LatLon0.15_PT012H.grib2 2026-05-07 04:00 916K
20260507T00Z_MSC_GDPS_WindU_IsbL-0275_LatLon0.15_PT012H.grib2 2026-05-07 04:00 942K
20260507T00Z_MSC_GDPS_WindU_IsbL-0300_LatLon0.15_PT012H.grib2 2026-05-07 04:00 937K
20260507T00Z_MSC_GDPS_WindU_IsbL-0350_LatLon0.15_PT012H.grib2 2026-05-07 04:00 896K
20260507T00Z_MSC_GDPS_WindU_IsbL-0400_LatLon0.15_PT012H.grib2 2026-05-07 04:00 899K
20260507T00Z_MSC_GDPS_WindU_IsbL-0450_LatLon0.15_PT012H.grib2 2026-05-07 04:00 902K
20260507T00Z_MSC_GDPS_WindU_IsbL-0500_LatLon0.15_PT012H.grib2 2026-05-07 04:00 1.1M
20260507T00Z_MSC_GDPS_WindU_IsbL-0550_LatLon0.15_PT012H.grib2 2026-05-07 04:00 1.1M
20260507T00Z_MSC_GDPS_WindU_IsbL-0600_LatLon0.15_PT012H.grib2 2026-05-07 04:00 1.2M
20260507T00Z_MSC_GDPS_WindU_IsbL-0650_LatLon0.15_PT012H.grib2 2026-05-07 04:00 1.2M
20260507T00Z_MSC_GDPS_WindU_IsbL-0700_LatLon0.15_PT012H.grib2 2026-05-07 04:00 1.2M
20260507T00Z_MSC_GDPS_WindU_IsbL-0750_LatLon0.15_PT012H.grib2 2026-05-07 04:00 1.3M
20260507T00Z_MSC_GDPS_WindU_IsbL-0800_LatLon0.15_PT012H.grib2 2026-05-07 04:00 1.4M
20260507T00Z_MSC_GDPS_WindU_IsbL-0850_LatLon0.15_PT012H.grib2 2026-05-07 04:00 1.4M
20260507T00Z_MSC_GDPS_WindU_IsbL-0875_LatLon0.15_PT012H.grib2 2026-05-07 04:00 1.5M
20260507T00Z_MSC_GDPS_WindU_IsbL-0900_LatLon0.15_PT012H.grib2 2026-05-07 04:00 1.5M
20260507T00Z_MSC_GDPS_WindU_IsbL-0925_LatLon0.15_PT012H.grib2 2026-05-07 04:00 1.5M
20260507T00Z_MSC_GDPS_WindU_IsbL-0950_LatLon0.15_PT012H.grib2 2026-05-07 04:00 1.4M
20260507T00Z_MSC_GDPS_WindU_IsbL-0970_LatLon0.15_PT012H.grib2 2026-05-07 04:00 1.4M
20260507T00Z_MSC_GDPS_WindU_IsbL-0985_LatLon0.15_PT012H.grib2 2026-05-07 04:00 1.4M
20260507T00Z_MSC_GDPS_WindU_IsbL-1000_LatLon0.15_PT012H.grib2 2026-05-07 04:00 1.4M
20260507T00Z_MSC_GDPS_WindU_IsbL-1015_LatLon0.15_PT012H.grib2 2026-05-07 04:00 1.3M
20260507T00Z_MSC_GDPS_WindV_AGL-10m_LatLon0.15_PT012H.grib2 2026-05-07 04:00 1.3M
20260507T00Z_MSC_GDPS_WindV_AGL-120m_LatLon0.15_PT012H.grib2 2026-05-07 04:00 1.0M
20260507T00Z_MSC_GDPS_WindV_AGL-40m_LatLon0.15_PT012H.grib2 2026-05-07 04:00 959K
20260507T00Z_MSC_GDPS_WindV_AGL-80m_LatLon0.15_PT012H.grib2 2026-05-07 04:00 964K
20260507T00Z_MSC_GDPS_WindV_IsbL-0001_LatLon0.15_PT012H.grib2 2026-05-07 04:00 728K
20260507T00Z_MSC_GDPS_WindV_IsbL-0005_LatLon0.15_PT012H.grib2 2026-05-07 04:00 874K
20260507T00Z_MSC_GDPS_WindV_IsbL-0010_LatLon0.15_PT012H.grib2 2026-05-07 04:00 809K
20260507T00Z_MSC_GDPS_WindV_IsbL-0020_LatLon0.15_PT012H.grib2 2026-05-07 04:00 861K
20260507T00Z_MSC_GDPS_WindV_IsbL-0030_LatLon0.15_PT012H.grib2 2026-05-07 04:00 864K
20260507T00Z_MSC_GDPS_WindV_IsbL-0050_LatLon0.15_PT012H.grib2 2026-05-07 04:00 908K
20260507T00Z_MSC_GDPS_WindV_IsbL-0100_LatLon0.15_PT012H.grib2 2026-05-07 04:00 1.1M
20260507T00Z_MSC_GDPS_WindV_IsbL-0150_LatLon0.15_PT012H.grib2 2026-05-07 04:00 1.0M
20260507T00Z_MSC_GDPS_WindV_IsbL-0175_LatLon0.15_PT012H.grib2 2026-05-07 04:00 1.0M
20260507T00Z_MSC_GDPS_WindV_IsbL-0200_LatLon0.15_PT012H.grib2 2026-05-07 04:00 839K
20260507T00Z_MSC_GDPS_WindV_IsbL-0225_LatLon0.15_PT012H.grib2 2026-05-07 04:00 908K
20260507T00Z_MSC_GDPS_WindV_IsbL-0250_LatLon0.15_PT012H.grib2 2026-05-07 04:00 911K
20260507T00Z_MSC_GDPS_WindV_IsbL-0275_LatLon0.15_PT012H.grib2 2026-05-07 04:00 939K
20260507T00Z_MSC_GDPS_WindV_IsbL-0300_LatLon0.15_PT012H.grib2 2026-05-07 04:00 932K
20260507T00Z_MSC_GDPS_WindV_IsbL-0350_LatLon0.15_PT012H.grib2 2026-05-07 04:00 947K
20260507T00Z_MSC_GDPS_WindV_IsbL-0400_LatLon0.15_PT012H.grib2 2026-05-07 04:00 892K
20260507T00Z_MSC_GDPS_WindV_IsbL-0450_LatLon0.15_PT012H.grib2 2026-05-07 04:00 1.1M
20260507T00Z_MSC_GDPS_WindV_IsbL-0500_LatLon0.15_PT012H.grib2 2026-05-07 04:00 1.1M
20260507T00Z_MSC_GDPS_WindV_IsbL-0550_LatLon0.15_PT012H.grib2 2026-05-07 04:00 1.1M
20260507T00Z_MSC_GDPS_WindV_IsbL-0600_LatLon0.15_PT012H.grib2 2026-05-07 04:00 1.1M
20260507T00Z_MSC_GDPS_WindV_IsbL-0650_LatLon0.15_PT012H.grib2 2026-05-07 04:00 1.2M
20260507T00Z_MSC_GDPS_WindV_IsbL-0700_LatLon0.15_PT012H.grib2 2026-05-07 04:00 1.2M
20260507T00Z_MSC_GDPS_WindV_IsbL-0750_LatLon0.15_PT012H.grib2 2026-05-07 04:00 1.3M
20260507T00Z_MSC_GDPS_WindV_IsbL-0800_LatLon0.15_PT012H.grib2 2026-05-07 04:00 1.4M
20260507T00Z_MSC_GDPS_WindV_IsbL-0850_LatLon0.15_PT012H.grib2 2026-05-07 04:00 1.4M
20260507T00Z_MSC_GDPS_WindV_IsbL-0875_LatLon0.15_PT012H.grib2 2026-05-07 04:00 1.4M
20260507T00Z_MSC_GDPS_WindV_IsbL-0900_LatLon0.15_PT012H.grib2 2026-05-07 04:00 1.5M
20260507T00Z_MSC_GDPS_WindV_IsbL-0925_LatLon0.15_PT012H.grib2 2026-05-07 04:00 1.4M
20260507T00Z_MSC_GDPS_WindV_IsbL-0950_LatLon0.15_PT012H.grib2 2026-05-07 04:00 1.4M
20260507T00Z_MSC_GDPS_WindV_IsbL-0970_LatLon0.15_PT012H.grib2 2026-05-07 04:00 1.4M
20260507T00Z_MSC_GDPS_WindV_IsbL-0985_LatLon0.15_PT012H.grib2 2026-05-07 04:00 1.4M
20260507T00Z_MSC_GDPS_WindV_IsbL-1000_LatLon0.15_PT012H.grib2 2026-05-07 04:00 1.4M
20260507T00Z_MSC_GDPS_WindV_IsbL-1015_LatLon0.15_PT012H.grib2 2026-05-07 04:00 1.3M